Regional Weather Roundup
Issued by NWS

Home | Current Version | Previous Version | Text Only | Print | Product List | Glossary Off
Versions: 1 2 3 4 5 6 7 8 9 10 11 12 13 14 15 16 17 18 19 20 21 22 23 24 25 26 27 28 29 30 31 32 33 34 35 36 37 38 39 40 41 42 43 44 45 46 47 48 49 50

000
ASUS45 KSLC 272210
RWRUT

UTAH REGIONAL WEATHER ROUNDUP
NATIONAL WEATHER SERVICE SALT LAKE CITY UT
400 PM MDT THU JUL 27 2017

UTZ001>011-023>025-272300-

NORTHERN UTAH

CITY           SKY/WX    TMP DP  RH WIND       PRES   REMARKS
BRIGHAM CITY     N/A     87  44  21 S10       30.12F
HILL AFB       MOSUNNY   85  49  28 SW9       30.15F
LOGAN            N/A     87  50  27 W8        30.11F
OGDEN            N/A     87  48  25 W10       30.12F
SALT LAKE CITY   N/A     89  56  32 N8        30.10F
TOOELE VALLEY    N/A     88  54  31 N10G16    30.11F
WENDOVER         N/A     86  52  30 E7        30.10F
HEBER CITY       N/A     90  43  19 S8        30.17F
WEST JORDAN      N/A     86  63  47 NW9       30.13F

$$

UTZ011>015-024>027-272300-

CENTRAL/NORTHEAST UTAH

CITY           SKY/WX    TMP DP  RH WIND       PRES   REMARKS
PROVO AIRPORT  MOSUNNY   88  52  29 VRB6      30.12F
MOAB/CANYONLAN   N/A     96  48  19 W10       30.03F HX  92
DELTA            N/A     88  43  20 NW8       30.12F
PRICE            N/A     87  49  26 NW7       30.19F
RICHFIELD      MOSUNNY   84  55  37 CALM      30.16F
ROOSEVELT        N/A     91  46  21 SW6       30.14F
VERNAL           N/A     91  47  21 VRB5      30.12F

$$

UTZ013>016-019>022-027-272300-

SOUTHERN UTAH

CITY           SKY/WX    TMP DP  RH WIND       PRES   REMARKS
BRYCE CANYON     N/A     76  49  38 W7        30.35F
CEDAR CITY       N/A     84  52  33 W5        30.18F
MILFORD          N/A     92  50  23 NW8G18    30.11F
ST GEORGE        N/A     98  53  22 VRB5      29.95F HX  96
HANKSVILLE       N/A     95  43  16 CALM      30.06F HX  91
KANAB          SUNNY     91  50  24 W3        30.14F
BLANDING         N/A     91  46  21 W8        30.22F

$$

REGIONAL REPORTS     COLORADO/ARIZONA

CITY           SKY/WX    TMP DP  RH WIND       PRES   REMARKS
CRAIG, CO        N/A     89  45  21 W12       30.19F
GRAND JUNCTION   N/A     94  45  18 W10       30.06F HX  90
RIFLE, CO        N/A     93  50  23 N9        30.12F HX  90
MONTROSE, CO     N/A     89  39  17 MISG      30.16F
CORTEZ, CO       N/A     89  47  23 N16       30.15F
COLORADO CITY    N/A     91  54  27 W8        30.15F
PAGE, AZ         N/A     96  53  23 W8        30.04F HX  93
GRAND CANYON   PTSUNNY   87  47  24 VRB6      30.26F
KINGMAN, AZ      N/A     99  48  17 SW8G21    30.01F HX  95
FLAGSTAFF, AZ    N/A     73  57  57 VRB3      30.31F THUNDER

$$

REGIONAL REPORTS    NEVADA/IDAHO/WYOMING

CITY           SKY/WX    TMP DP  RH WIND       PRES   REMARKS
LAS VEGAS, NV    N/A    103  54  19 CALM      29.89F HX 101
ELY, NY          N/A     81  42  25 W12       30.24F
ELKO, NV         N/A     90  36  14 W15G22    30.14F
POCATELLO, ID    N/A     84  46  26 W7G17     30.15F
BURLEY, ID       N/A     84  47  27 CALM      30.11F
FORT BRIDGER,    N/A     83  42  23 W17G25    30.31F
EVANSTON, WY   PTSUNNY   78  47  33 W15       30.30F
ROCK SPRINGS,  PTSUNNY   82  40  22 SW10G20   30.24F
KEMMERER, WY     N/A    N/A N/A N/A W10G20    30.30F

$$



USA.gov is the U.S. government's official web portal to all federal, state and local government web resources and services.